{"data":{"norad_id":58801,"intl_designator":"2024-012Q","name":"STARLINK-31170","alt_names":[],"object_type":"PAYLOAD","status":"ACTIVE","operator":null,"country":"US","launch_date":"2024-01-15","launch_site_code":"AFETR","launch_vehicle":null,"mission":null,"orbit_class":"UNKNOWN","rcs_meters":null,"size_class":null,"mass_kg":null,"dimensions":null,"purposes":["comms"],"wikipedia_slug":null,"has_3d_model":false,"image_url":null,"decayed_at":null,"tle_current":{"epoch":"2026-09-20T09:35:22.269984Z","epoch_age_seconds":161199,"freshness":"FRESH","line1":"1 58801U 24012Q   26263.39956331  .00000535  00000+0  28983-4 0  9995","line2":"2 58801  43.0043 145.6855 0001383 264.7892  95.2802 15.27580575151014","mean_motion":15.27580575,"eccentricity":0.0001383,"inclination_deg":43.0043,"raan_deg":145.6855,"arg_perigee_deg":264.7892,"mean_anomaly_deg":95.2802,"bstar":2.8983e-5,"rev_number":15101,"period_min":94.266713230495,"perigee_km":482.09847248437,"apogee_km":483.9962760823,"semimajor_km":6861.1843742833,"source":"CELESTRAK","updated_at":"2026-09-21T09:00:33.981259Z"}}}